Volver al catálogo

STARLINK-4359

ActivoComunicacionesSSO
NORAD 53226·PAYLOAD·🇺🇸 United States

Lanzado Jul 22, 2022 desde Vandenberg Space Force Base

Loading…

Próximos Pases (próximas 24 horas)

TLE

ActualizadoSource: CelesTrak SupGP

Época: Sep 15, 2026, 02:10 UTC

1 53226C 22084AP  26258.09076389  .00111020  00000+0  34462-2 0  2582
2 53226  97.2838 312.9738 0001962  77.5556 324.1096 15.33383229    18

Sigue STARLINK-4359 en tiempo real con AllMySat

Download on the App Store